SL-14 DEB

Satellite information

Favourite Embed

Satellite Type and Status

DEBRISIN ORBIT

Key statistics

Satellite SL-14 DEB at a glance.

Uptime

17174

Days in orbit

Revolutions

≈ 12.7

Per day

Orbit

LEO

Low Earth Orbit

Inclination

82.3

Latest

Satellite identification and parameters

Extended collection of information and parameters for SL-14 DEB.

Object identification

Identified? True

Debris? True

Object name: SL-14 DEB

International designator: 1978-100F

Object number (NORAD): 19133

Object ID (CCSDS): 19133

Country: COMMONWEALTH OF INDEPENDENT STATES (CIS)

Current information (Y/N): Y

RCS size: MEDIUM

Orbital parameters

Period: 113.464 minutes

Inclination: 82.3251 deg

SMA: 7763.63 km

Apoapsis: 1492.794 km

Periapsis: 1278.196 km

RAAN: 87.7558 deg

Eccentricy: 0.01382073

Argument of periapsis: 254.4195 deg

Mean anomaly: 116.2121 deg

Mean motion: 12.69128348 rev/day

Mean motion (dot): 0.00005368 rev/day2

B* drag term: 0.02630356 1/REarth

Two-line elements (TLE)

Creation date: Nov. 1, 2025, 7:40 p.m.

Reference frame: TEME

Reference center: EARTH

Epoch: Nov. 1, 2025, 3:25 p.m. UTC

TLE line 0: 0 SL-14 DEB

TLE line 1: 1 19133U 78100F 25305.64284772 .00005368 00000-0 26304-1 0 9996

TLE line 2: 2 19133 82.3251 87.7558 0138207 254.4195 116.2121 12.69128348107849

Live tracking on map

Real-time ground track for satellite SL-14 DEB.

In-orbit conjunctions

A list of the most updated potential collisions computed for object SL-14 DEB.

Target Orbit TCA Probability of collision Miss distance Type
COSMOS 1084 LEO 2025-09-08 14:24:54 0.0001447192 869.0 (m) PAYLOAD
COSMOS 620 LEO 2025-01-12 02:17:40 0.0001189508 656.0 (m) PAYLOAD
DELTA 1 DEB SSO 2024-08-13 10:27:17 0.0001340794 173.0 (m) DEBRIS

Associated space launch

Mass model of the Meteor-2 meteorological satellite

SL-14 DEB was lifted into orbit during the mission ‘Tsiklon-3 | Meteor-2-GVM’, on board a Tsiklon-3 space rocket.

The launch took place on Oct. 26, 1978, 7 a.m. from 32/2.

For more information about the launch, click the button.

Launch to space Tsiklon-3 | Meteor-2-GVM
Tsiklon-3 | Meteor-2-GVM

Agency: N/A

Status: Launch Successful

Launch date: Oct. 26, 1978, 7 a.m. UTC

Rocket: Tsiklon-3

Launch pad: 32/2

Location: Plesetsk Cosmodrome, Russian Federation

...

Latest news about this satellite

There are no fresh news available about this satellite. Check back as we update our databases every day.


Newsletter sign-up

Weekly statistics, charts and insights to help you stay on top of the space industry.